OE3FJB-25 Weather Reports


time (UTC)temp
F
wind
direction
speed
knots
gust
knots
rain 1hr
in
rain 24hr
in
rain mn
in
humidity
%
barometer
mb
20260506133833 72 0.0 0.0 0.00 0.00 0.00 50 1009.5
20260506132834 73 0.0 0.0 0.00 0.00 0.00 47 1009.5
20260506131834 74 0.0 0.0 0.00 0.00 0.00 48 1009.6
20260506130835 75 0.0 0.0 0.00 0.00 0.00 48 1009.7
20260506125837 74 0.0 0.0 0.00 0.00 0.00 51 1009.7
20260506124838 72 0.0 0.0 0.00 0.00 0.00 58 1009.9
20260506123839 74 0.0 0.0 0.00 0.00 0.00 55 1010.1
20260506122841 73 0.0 0.0 0.00 0.00 0.00 59 1010.2
20260506121842 73 0.0 0.0 0.00 0.00 0.00 62 1010.3
20260506120841 72 0.0 0.0 0.00 0.00 0.00 65 1010.5
20260506115843 73 0.0 0.0 0.00 0.00 0.00 67 1010.5
20260506114844 73 0.0 0.0 0.00 0.00 0.00 72 1010.6
20260506113846 70 0.0 0.0 0.00 0.00 0.00 89 1010.7
20260506112847 69 0.0 0.0 0.00 0.00 0.00 92 1011.0
20260506111848 68 0.0 0.0 0.00 0.00 0.00 95 1011.1
20260506110850 70 0.0 0.0 0.00 0.00 0.00 91 1011.2
20260506105851 70 0.0 0.0 0.00 0.00 0.00 93 1011.2
20260506104853 70 0.0 0.0 0.00 0.00 0.00 92 1011.3
20260506103854 71 0.0 0.0 0.00 0.00 0.00 91 1011.4
20260506102855 69 0.0 0.0 0.00 0.00 0.00 96 1011.4
20260506101857 67 0.0 0.0 0.00 0.00 0.00 99 1011.5
20260506100858 67 0.0 0.0 0.00 0.00 0.00 99 1011.6
20260506095900 68 0.0 0.0 0.00 0.00 0.00 94 1011.6
20260506094901 70 0.0 0.0 0.00 0.00 0.00 88 1011.7
20260506093902 68 0.0 0.0 0.00 0.00 0.00 96 1011.8
20260506092904 67 0.0 0.0 0.00 0.00 0.00 97 1011.7
20260506091905 68 0.0 0.0 0.00 0.00 0.00 99 1011.8
20260506090907 68 0.0 0.0 0.00 0.00 0.00 99 1011.8
20260506085906 68 0.0 0.0 0.00 0.00 0.00 99 1012.0
20260506084907 69 0.0 0.0 0.00 0.00 0.00 99 1011.9
20260506083909 67 0.0 0.0 0.00 0.00 0.00 99 1011.9
20260506082910 66 0.0 0.0 0.00 0.00 0.00 99 1012.0
20260506081911 64 0.0 0.0 0.00 0.00 0.00 99 1012.2
20260506080913 63 0.0 0.0 0.00 0.00 0.00 99 1012.1
20260506072918 61 0.0 0.0 0.00 0.00 0.00 99 1012.0
20260506071920 61 0.0 0.0 0.00 0.00 0.00 99 1012.1
20260506070921 62 0.0 0.0 0.00 0.00 0.00 99 1012.3
20260506061928 57 0.0 0.0 0.00 0.00 0.00 99 1012.0
20260506060929 56 0.0 0.0 0.00 0.00 0.00 99 1012.1
20260506050937 53 0.0 0.0 0.00 0.00 0.00 99 1012.0
20260506044940 51 0.0 0.0 0.00 0.00 0.00 99 1012.3
20260506043941 51 0.0 0.0 0.00 0.00 0.00 99 1012.3
20260506042942 51 0.0 0.0 0.00 0.00 0.00 99 1012.3
20260506041944 51 0.0 0.0 0.00 0.00 0.00 99 1012.4
20260506040945 50 0.0 0.0 0.00 0.00 0.00 99 1012.2
20260506035946 50 0.0 0.0 0.00 0.00 0.00 99 1011.9
20260506034947 50 0.0 0.0 0.00 0.00 0.00 99 1011.7
20260506033947 50 0.0 0.0 0.00 0.00 0.00 99 1011.7
20260506032948 50 0.0 0.0 0.00 0.00 0.00 99 1011.6
20260506031949 50 0.0 0.0 0.00 0.00 0.00 99 1011.6
20260506030951 51 0.0 0.0 0.00 0.00 0.00 99 1011.8
20260506025952 50 0.0 0.0 0.00 0.00 0.00 99 1011.8
20260506024953 50 0.0 0.0 0.00 0.00 0.00 99 1011.6
20260506023955 50 0.0 0.0 0.00 0.00 0.00 99 1011.7
20260506022956 50 0.0 0.0 0.00 0.00 0.00 99 1011.9
20260506021957 51 0.0 0.0 0.00 0.00 0.00 99 1011.9
20260506020959 51 0.0 0.0 0.00 0.00 0.00 99 1011.9
20260506015957 51 0.0 0.0 0.00 0.00 0.00 99 1011.9
20260506014958 51 0.0 0.0 0.00 0.00 0.00 99 1012.0
20260506014000 51 0.0 0.0 0.00 0.00 0.00 99 1012.0
20260506013001 51 0.0 0.0 0.00 0.00 0.00 99 1011.9
20260506012002 51 0.0 0.0 0.00 0.00 0.00 99 1011.8
20260506011004 51 0.0 0.0 0.00 0.00 0.00 99 1011.9
20260506010005 51 0.0 0.0 0.00 0.00 0.00 99 1011.9
20260506005006 51 0.0 0.0 0.00 0.00 0.00 99 1012.0
20260506004008 51 0.0 0.0 0.00 0.00 0.00 99 1012.0
20260506003009 51 0.0 0.0 0.00 0.00 0.00 99 1012.0
20260506002010 51 0.0 0.0 0.00 0.00 0.00 99 1011.8
20260506001006 51 0.0 0.0 0.00 0.00 0.00 99 1011.9
20260506000008 51 0.0 0.0 0.00 0.00 0.00 99 1011.8
20260505235009 51 0.0 0.0 0.00 0.00 0.00 99 1011.8
20260505234010 51 0.0 0.0 0.00 0.00 0.00 99 1011.6
20260505233012 52 0.0 0.0 0.00 0.00 0.00 99 1011.6
20260505232013 52 0.0 0.0 0.00 0.00 0.00 99 1011.6
20260505231014 52 0.0 0.0 0.00 0.00 0.00 99 1011.5
20260505230015 52 0.0 0.0 0.00 0.00 0.00 99 1011.4
20260505225016 52 0.0 0.0 0.00 0.00 0.00 99 1011.3
20260505224017 52 0.0 0.0 0.00 0.00 0.00 99 1011.2
20260505223019 52 0.0 0.0 0.00 0.00 0.00 99 1011.1
20260505222020 52 0.0 0.0 0.00 0.00 0.00 99 1010.9
20260505221021 52 0.0 0.0 0.00 0.00 0.00 99 1010.8
20260505220023 52 0.0 0.0 0.00 0.00 0.00 99 1010.8
20260505215024 52 0.0 0.0 0.00 0.00 0.00 99 1010.7
20260505214026 52 0.0 0.0 0.00 0.00 0.00 99 1010.6
20260505213027 53 0.0 0.0 0.00 0.00 0.00 99 1010.5
20260505212028 54 0.0 0.0 0.00 0.00 0.00 99 1010.6
20260505211030 55 0.0 0.0 0.00 0.00 0.00 99 1010.8
20260505210031 56 0.0 0.0 0.00 0.00 0.00 99 1010.6
20260505205032 57 0.0 0.0 0.00 0.00 0.00 99 1010.4
20260505204034 58 0.0 0.0 0.00 0.00 0.00 99 1010.2
20260505203035 59 0.0 0.0 0.00 0.00 0.00 99 1010.2
20260505202036 59 0.0 0.0 0.00 0.00 0.00 99 1009.9
20260505201038 59 0.0 0.0 0.00 0.00 0.00 99 1009.7
20260505200039 60 0.0 0.0 0.00 0.00 0.00 99 1009.6
20260505195041 61 0.0 0.0 0.00 0.00 0.00 99 1009.5
20260505194042 62 0.0 0.0 0.00 0.00 0.00 99 1009.4
20260505193044 63 0.0 0.0 0.00 0.00 0.00 99 1009.4
20260505192045 62 0.0 0.0 0.00 0.00 0.00 99 1009.1
20260505191046 62 0.0 0.0 0.00 0.00 0.00 99 1008.9
20260505190047 62 0.0 0.0 0.00 0.00 0.00 99 1008.9
20260505185049 62 0.0 0.0 0.00 0.00 0.00 99 1008.8
20260505184050 63 0.0 0.0 0.00 0.00 0.00 99 1008.8
20260505183052 63 0.0 0.0 0.00 0.00 0.00 99 1008.9
20260505182053 64 0.0 0.0 0.00 0.00 0.00 99 1008.8
20260505181054 64 0.0 0.0 0.00 0.00 0.00 99 1008.8
20260505180056 65 0.0 0.0 0.00 0.00 0.00 99 1008.9
20260505175057 65 0.0 0.0 0.00 0.00 0.00 99 1008.9
20260505174059 65 0.0 0.0 0.00 0.00 0.00 99 1008.9
20260505173100 66 0.0 0.0 0.00 0.00 0.00 99 1008.8
20260505172101 66 0.0 0.0 0.00 0.00 0.00 96 1008.9
20260505171103 67 0.0 0.0 0.00 0.00 0.00 71 1008.8
20260505170104 68 0.0 0.0 0.00 0.00 0.00 62 1008.8
20260505165106 70 0.0 0.0 0.00 0.00 0.00 55 1008.8
20260505164107 70 0.0 0.0 0.00 0.00 0.00 54 1008.8
20260505163107 69 0.0 0.0 0.00 0.00 0.00 54 1008.9
20260505162107 69 0.0 0.0 0.00 0.00 0.00 53 1009.0
20260505161107 69 0.0 0.0 0.00 0.00 0.00 52 1009.2
20260505160107 69 0.0 0.0 0.00 0.00 0.00 53 1009.3
20260505153110 70 0.0 0.0 0.00 0.00 0.00 57 1009.5
20260505152112 70 0.0 0.0 0.00 0.00 0.00 61 1009.6
20260505151113 70 0.0 0.0 0.00 0.00 0.00 62 1009.6
20260505150114 70 0.0 0.0 0.00 0.00 0.00 62 1009.7
20260505140123 73 0.0 0.0 0.00 0.00 0.00 64 1010.4